When you browse on this site, cookies collect data to enhance your experience and personalize the content and advertising you see.
Visit our Privacy Policy to learn more. By continuing to use the site, you agree to this use of cookies and data.
  • In Hungary
  • List of Countries
  • For 7 days
  • Water Temperature
  • Weather Map
  • News
  • Weather Widgets
  • user-avatar
    Login

    Hourly Weather Santa Rosa de Osos

    Today, 12 December, Thursday

    Time Temperature Precipitation Wind Pressure Humidity
    00:00 +9°C° 0 mm 0 mps 559 mmHg 96%
    01:00 +9°C° 0 mm 0 mps 558 mmHg 96%
    02:00 +9°C° 0 mm 0 mps 558 mmHg 96%
    03:00 +9°C° 0 mm 0 mps 558 mmHg 96%
    04:00 +9°C° 0 mm 0 mps 558 mmHg 96%
    05:00 +9°C° 0 mm 0 mps 558 mmHg 96%
    06:00 +9°C° 0 mm 0 mps 559 mmHg 95%
    07:00 +10°C° 0 mm 0 mps 559 mmHg 93%
    08:00 +12°C° 0.1 mm 0 mps 561 mmHg 86%
    09:00 +14°C° 0.1 mm 0 mps 562 mmHg 79%
    10:00 +18°C° 0.1 mm 1 mps 563 mmHg 72%
    11:00 +18°C° 0.6 mm 1 mps 562 mmHg 76%
    12:00 +18°C° 0.6 mm 1 mps 561 mmHg 80%
    13:00 +16°C° 0.6 mm 1 mps 561 mmHg 84%
    14:00 +16°C° 1 mm 1 mps 560 mmHg 86%
    15:00 +16°C° 1 mm 1 mps 560 mmHg 88%
    16:00 +14°C° 1 mm 0 mps 559 mmHg 90%
    17:00 +13°C° 0.4 mm 0 mps 559 mmHg 93%
    18:00 +12°C° 0.4 mm 0 mps 558 mmHg 95%
    19:00 +10°C° 0.4 mm 0 mps 558 mmHg 98%
    20:00 +10°C° 0.1 mm 0 mps 558 mmHg 97%
    21:00 +10°C° 0.1 mm 0 mps 559 mmHg 97%
    22:00 +10°C° 0.1 mm 0 mps 559 mmHg 96%
    23:00 +9°C° 0 mm 0 mps 559 mmHg 96%

    Tomorrow, 13 December, Friday

    Time Temperature Precipitation Wind Pressure Humidity
    00:00 +9°C° 0 mm 0 mps 558 mmHg 96%
    01:00 +9°C° 0 mm 0 mps 558 mmHg 96%
    02:00 +9°C° 0 mm 0 mps 558 mmHg 96%
    03:00 +8°C° 0 mm 0 mps 557 mmHg 96%
    04:00 +8°C° 0 mm 0 mps 557 mmHg 96%
    05:00 +9°C° 0 mm 0 mps 558 mmHg 96%
    06:00 +9°C° 0 mm 0 mps 558 mmHg 95%
    07:00 +9°C° 0 mm 0 mps 558 mmHg 95%
    08:00 +12°C° 0.1 mm 0 mps 560 mmHg 86%
    09:00 +14°C° 0.1 mm 0 mps 561 mmHg 77%
    10:00 +18°C° 0.1 mm 1 mps 563 mmHg 68%
    11:00 +16°C° 0.5 mm 0 mps 562 mmHg 71%
    12:00 +16°C° 0.5 mm 0 mps 561 mmHg 75%
    13:00 +16°C° 0.5 mm 0 mps 560 mmHg 78%
    14:00 +15°C° 1 mm 0 mps 560 mmHg 83%
    15:00 +15°C° 1 mm 0 mps 559 mmHg 88%
    16:00 +14°C° 1 mm 0 mps 559 mmHg 93%
    17:00 +13°C° 0.7 mm 0 mps 558 mmHg 94%
    18:00 +12°C° 0.7 mm 0 mps 558 mmHg 96%
    19:00 +11°C° 0.7 mm 0 mps 558 mmHg 98%
    20:00 +10°C° 0.2 mm 0 mps 558 mmHg 97%
    21:00 +11°C° 0.2 mm 1 mps 559 mmHg 97%
    22:00 +11°C° 0.2 mm 1 mps 559 mmHg 97%
    23:00 +10°C° 0.2 mm 1 mps 559 mmHg 97%

    Day after tomorrow, 14 December, Saturday

    Time Temperature Precipitation Wind Pressure Humidity
    00:00 +10°C° 0.2 mm 1 mps 558 mmHg 97%
    01:00 +9°C° 0.2 mm 0 mps 558 mmHg 97%
    02:00 +9°C° 0.8 mm 0 mps 558 mmHg 97%
    03:00 +10°C° 0.8 mm 0 mps 558 mmHg 97%
    04:00 +10°C° 0.8 mm 0 mps 558 mmHg 97%
    05:00 +10°C° 0.3 mm 0 mps 559 mmHg 97%
    06:00 +10°C° 0.3 mm 0 mps 559 mmHg 97%
    07:00 +10°C° 0.3 mm 0 mps 560 mmHg 97%
    08:00 +11°C° 0.1 mm 0 mps 561 mmHg 93%
    09:00 +13°C° 0.1 mm 0 mps 561 mmHg 89%
    10:00 +15°C° 0.1 mm 1 mps 562 mmHg 85%
    11:00 +15°C° 0.8 mm 1 mps 562 mmHg 86%
    12:00 +15°C° 0.8 mm 1 mps 561 mmHg 86%
    13:00 +15°C° 0.8 mm 1 mps 560 mmHg 87%
    14:00 +15°C° 2.1 mm 1 mps 560 mmHg 89%
    15:00 +13°C° 2.1 mm 0 mps 559 mmHg 92%
    16:00 +13°C° 2.1 mm 0 mps 559 mmHg 94%
    17:00 +12°C° 1.3 mm 0 mps 559 mmHg 95%
    18:00 +11°C° 1.3 mm 0 mps 559 mmHg 97%
    19:00 +11°C° 1.3 mm 0 mps 559 mmHg 98%
    20:00 +10°C° 0.4 mm 0 mps 559 mmHg 98%
    21:00 +10°C° 0.4 mm 0 mps 560 mmHg 97%
    22:00 +10°C° 0.4 mm 0 mps 560 mmHg 97%
    23:00 +10°C° 0.4 mm 0 mps 560 mmHg 97%

    15 December, Sunday

    Time Temperature Precipitation Wind Pressure Humidity
    00:00 +10°C° 0.4 mm 0 mps 559 mmHg 97%
    01:00 +10°C° 0.4 mm 0 mps 559 mmHg 97%
    02:00 +10°C° 0.3 mm 0 mps 559 mmHg 97%
    03:00 +10°C° 0.3 mm 0 mps 559 mmHg 97%
    04:00 +10°C° 0.3 mm 0 mps 559 mmHg 96%
    05:00 +10°C° 0.2 mm 0 mps 559 mmHg 96%
    06:00 +10°C° 0.2 mm 0 mps 560 mmHg 96%
    07:00 +10°C° 0.2 mm 0 mps 560 mmHg 95%
    08:00 +12°C° 0 mm 0 mps 561 mmHg 86%
    09:00 +14°C° 0 mm 0 mps 562 mmHg 77%
    10:00 +18°C° 0 mm 1 mps 564 mmHg 68%
    11:00 +18°C° 0.4 mm 1 mps 563 mmHg 70%
    12:00 +18°C° 0.4 mm 1 mps 562 mmHg 73%
    13:00 +18°C° 0.4 mm 1 mps 562 mmHg 75%
    14:00 +18°C° 1.2 mm 1 mps 561 mmHg 81%
    15:00 +16°C° 1.2 mm 1 mps 560 mmHg 88%
    16:00 +15°C° 1.2 mm 1 mps 560 mmHg 94%
    17:00 +14°C° 0.6 mm 1 mps 559 mmHg 96%
    18:00 +13°C° 0.6 mm 1 mps 559 mmHg 97%
    19:00 +12°C° 0.6 mm 1 mps 559 mmHg 98%
    20:00 +10°C° 0.1 mm 0 mps 559 mmHg 98%
    21:00 +10°C° 0.1 mm 0 mps 559 mmHg 97%
    22:00 +9°C° 0.1 mm 0 mps 559 mmHg 97%
    23:00 +9°C° 0 mm 0 mps 559 mmHg 96%

    16 December, Monday

    Time Temperature Precipitation Wind Pressure Humidity
    00:00 +9°C° 0 mm 0 mps 558 mmHg 96%
    01:00 +9°C° 0 mm 1 mps 558 mmHg 95%
    02:00 +9°C° 0 mm 1 mps 558 mmHg 95%
    03:00 +9°C° 0 mm 1 mps 557 mmHg 95%
    04:00 +9°C° 0 mm 1 mps 557 mmHg 94%
    05:00 +8°C° 0 mm 0 mps 558 mmHg 94%
    06:00 +9°C° 0 mm 0 mps 558 mmHg 93%
    07:00 +9°C° 0 mm 0 mps 559 mmHg 92%
    08:00 +12°C° 0 mm 0 mps 561 mmHg 80%
    09:00 +16°C° 0 mm 1 mps 562 mmHg 68%
    10:00 +20°C° 0 mm 1 mps 564 mmHg 56%
    11:00 +20°C° 0.3 mm 1 mps 563 mmHg 59%
    12:00 +20°C° 0.3 mm 1 mps 563 mmHg 63%
    13:00 +20°C° 0.3 mm 1 mps 562 mmHg 66%
    14:00 +19°C° 1.2 mm 1 mps 561 mmHg 75%
    15:00 +18°C° 1.2 mm 1 mps 560 mmHg 83%
    16:00 +16°C° 1.2 mm 1 mps 559 mmHg 91%
    17:00 +14°C° 0.5 mm 0 mps 559 mmHg 94%
    18:00 +12°C° 0.5 mm 0 mps 558 mmHg 96%
    19:00 +11°C° 0.5 mm 0 mps 558 mmHg 98%
    20:00 +11°C° 0.4 mm 0 mps 559 mmHg 98%
    21:00 +11°C° 0.4 mm 0 mps 559 mmHg 98%
    22:00 +11°C° 0.4 mm 0 mps 559 mmHg 98%
    23:00 +11°C° 0.2 mm 0 mps 559 mmHg 98%

    17 December, Tuesday

    Time Temperature Precipitation Wind Pressure Humidity
    00:00 +11°C° 0.2 mm 0 mps 559 mmHg 97%
    01:00 +11°C° 0.2 mm 0 mps 559 mmHg 97%
    02:00 +10°C° 0.1 mm 0 mps 558 mmHg 97%
    03:00 +10°C° 0.1 mm 0 mps 558 mmHg 98%
    04:00 +10°C° 0.1 mm 0 mps 558 mmHg 98%
    05:00 +10°C° 0 mm 0 mps 558 mmHg 97%
    06:00 +10°C° 0 mm 0 mps 559 mmHg 97%
    07:00 +11°C° 0 mm 0 mps 559 mmHg 97%
    08:00 +13°C° 0.2 mm 0 mps 560 mmHg 91%
    09:00 +14°C° 0.2 mm 0 mps 561 mmHg 84%
    10:00 +18°C° 0.2 mm 1 mps 562 mmHg 78%
    11:00 +18°C° 1.2 mm 1 mps 561 mmHg 80%
    12:00 +18°C° 1.2 mm 1 mps 561 mmHg 82%
    13:00 +19°C° 1.2 mm 1 mps 560 mmHg 84%
    14:00 +18°C° 1.6 mm 1 mps 560 mmHg 87%
    15:00 +15°C° 1.6 mm 0 mps 559 mmHg 90%
    16:00 +15°C° 1.6 mm 0 mps 558 mmHg 93%
    17:00 +13°C° 1.3 mm 0 mps 558 mmHg 95%
    18:00 +12°C° 1.3 mm 0 mps 558 mmHg 96%
    19:00 +12°C° 1.3 mm 1 mps 558 mmHg 97%
    20:00 +12°C° 1 mm 1 mps 558 mmHg 97%
    21:00 +11°C° 1 mm 0 mps 558 mmHg 97%
    22:00 +11°C° 1 mm 0 mps 559 mmHg 96%
    23:00 +11°C° 1.1 mm 0 mps 558 mmHg 97%
    Show more